When you browse on this site, cookies collect data to enhance your experience and personalize the content and advertising you see.
Visit our Privacy Policy to learn more. By continuing to use the site, you agree to this use of cookies and data.
  • In Czech Republic
  • List of Countries
  • For 7 days
  • Water Temperature
  • Weather Map
  • Weather Widgets
  • user-avatar
    Login

    Hourly Weather Livani

    Today, 5 June, Friday

    Time Temperature Precipitation Wind Pressure Humidity
    00:00 +11°C° 0 mm 1 mps 741 mmHg 94%
    01:00 +10°C° 0 mm 1 mps 741 mmHg 95%
    02:00 +10°C° 0 mm 1 mps 741 mmHg 95%
    03:00 +10°C° 0 mm 1 mps 741 mmHg 95%
    04:00 +10°C° 0 mm 1 mps 741 mmHg 95%
    05:00 +10°C° 0 mm 1 mps 741 mmHg 95%
    06:00 +12°C° 0 mm 1 mps 741 mmHg 89%
    07:00 +14°C° 0 mm 1 mps 742 mmHg 83%
    08:00 +16°C° 0 mm 1 mps 742 mmHg 77%
    09:00 +17°C° 0 mm 2 mps 742 mmHg 68%
    10:00 +19°C° 0 mm 2 mps 742 mmHg 59%
    11:00 +20°C° 0 mm 3 mps 742 mmHg 50%
    12:00 +21°C° 0 mm 3 mps 742 mmHg 48%
    13:00 +21°C° 0 mm 3 mps 742 mmHg 46%
    14:00 +22°C° 0 mm 4 mps 742 mmHg 44%
    15:00 +22°C° 0 mm 4 mps 742 mmHg 45%
    16:00 +22°C° 0 mm 4 mps 742 mmHg 47%
    17:00 +22°C° 0 mm 4 mps 741 mmHg 49%
    18:00 +20°C° 0 mm 4 mps 741 mmHg 56%
    19:00 +18°C° 0 mm 3 mps 741 mmHg 63%
    20:00 +17°C° 0 mm 3 mps 741 mmHg 71%
    21:00 +17°C° 0 mm 4 mps 741 mmHg 71%
    22:00 +15°C° 0 mm 4 mps 741 mmHg 71%
    23:00 +15°C° 0 mm 5 mps 740 mmHg 71%

    Tomorrow, 6 June, Saturday

    Time Temperature Precipitation Wind Pressure Humidity
    00:00 +15°C° 0.1 mm 5 mps 740 mmHg 79%
    01:00 +15°C° 0.1 mm 4 mps 740 mmHg 87%
    02:00 +15°C° 0.1 mm 4 mps 740 mmHg 95%
    03:00 +15°C° 0.1 mm 4 mps 740 mmHg 96%
    04:00 +16°C° 0.1 mm 3 mps 741 mmHg 96%
    05:00 +17°C° 0.1 mm 3 mps 741 mmHg 96%
    06:00 +16°C° 1.8 mm 3 mps 741 mmHg 96%
    07:00 +15°C° 1.8 mm 2 mps 741 mmHg 97%
    08:00 +14°C° 1.8 mm 2 mps 741 mmHg 97%
    09:00 +14°C° 0.3 mm 3 mps 741 mmHg 90%
    10:00 +15°C° 0.3 mm 4 mps 742 mmHg 84%
    11:00 +17°C° 0.3 mm 5 mps 742 mmHg 77%
    12:00 +19°C° 0.3 mm 5 mps 743 mmHg 72%
    13:00 +19°C° 0.3 mm 6 mps 744 mmHg 68%
    14:00 +20°C° 0.3 mm 6 mps 744 mmHg 63%
    15:00 +20°C° 0.1 mm 6 mps 745 mmHg 60%
    16:00 +19°C° 0.1 mm 6 mps 745 mmHg 58%
    17:00 +19°C° 0.1 mm 5 mps 746 mmHg 55%
    18:00 +17°C° 0 mm 4 mps 747 mmHg 61%
    19:00 +16°C° 0 mm 3 mps 747 mmHg 68%
    20:00 +15°C° 0 mm 2 mps 747 mmHg 74%
    21:00 +14°C° 0 mm 2 mps 748 mmHg 78%
    22:00 +13°C° 0 mm 2 mps 749 mmHg 83%
    23:00 +12°C° 0 mm 2 mps 749 mmHg 87%

    Day after tomorrow, 7 June, Sunday

    Time Temperature Precipitation Wind Pressure Humidity
    00:00 +12°C° 0 mm 2 mps 749 mmHg 84%
    01:00 +13°C° 0 mm 2 mps 750 mmHg 82%
    02:00 +14°C° 0 mm 2 mps 750 mmHg 79%
    03:00 +13°C° 0 mm 3 mps 750 mmHg 82%
    04:00 +13°C° 0 mm 3 mps 751 mmHg 85%
    05:00 +13°C° 0 mm 3 mps 751 mmHg 88%
    06:00 +16°C° 0 mm 3 mps 751 mmHg 81%
    07:00 +17°C° 0 mm 3 mps 751 mmHg 74%
    08:00 +19°C° 0 mm 3 mps 752 mmHg 68%
    09:00 +21°C° 0 mm 3 mps 752 mmHg 62%
    10:00 +23°C° 0 mm 4 mps 752 mmHg 56%
    11:00 +25°C° 0 mm 4 mps 752 mmHg 51%
    12:00 +25°C° 0.1 mm 5 mps 751 mmHg 55%
    13:00 +24°C° 0.1 mm 6 mps 751 mmHg 59%
    14:00 +23°C° 0.1 mm 6 mps 751 mmHg 63%
    15:00 +24°C° 0.1 mm 6 mps 750 mmHg 64%
    16:00 +25°C° 0.1 mm 5 mps 750 mmHg 64%
    17:00 +25°C° 0.1 mm 5 mps 749 mmHg 64%
    18:00 +23°C° 0.8 mm 4 mps 749 mmHg 73%
    19:00 +22°C° 0.8 mm 4 mps 749 mmHg 82%
    20:00 +20°C° 0.8 mm 3 mps 749 mmHg 91%
    21:00 +20°C° 0.6 mm 3 mps 749 mmHg 92%
    22:00 +19°C° 0.6 mm 3 mps 750 mmHg 94%
    23:00 +18°C° 0.6 mm 2 mps 750 mmHg 95%

    8 June, Monday

    Time Temperature Precipitation Wind Pressure Humidity
    00:00 +18°C° 0 mm 2 mps 750 mmHg 96%
    01:00 +18°C° 0 mm 2 mps 750 mmHg 97%
    02:00 +17°C° 0 mm 2 mps 750 mmHg 97%
    03:00 +18°C° 0 mm 1 mps 751 mmHg 98%
    04:00 +18°C° 0 mm 1 mps 751 mmHg 98%
    05:00 +18°C° 0 mm 1 mps 751 mmHg 98%
    06:00 +19°C° 0 mm 1 mps 751 mmHg 95%
    07:00 +21°C° 0 mm 1 mps 752 mmHg 92%
    08:00 +22°C° 0 mm 1 mps 752 mmHg 89%
    09:00 +23°C° 0 mm 1 mps 752 mmHg 83%
    10:00 +25°C° 0 mm 1 mps 752 mmHg 77%
    11:00 +26°C° 0 mm 2 mps 752 mmHg 71%
    12:00 +26°C° 0.9 mm 2 mps 752 mmHg 71%
    13:00 +27°C° 0.9 mm 3 mps 752 mmHg 72%
    14:00 +27°C° 0.9 mm 3 mps 752 mmHg 72%
    15:00 +27°C° 0.7 mm 3 mps 751 mmHg 73%
    16:00 +27°C° 0.7 mm 2 mps 751 mmHg 74%
    17:00 +27°C° 0.7 mm 2 mps 751 mmHg 76%
    18:00 +26°C° 0.3 mm 2 mps 751 mmHg 79%
    19:00 +24°C° 0.3 mm 2 mps 751 mmHg 83%
    20:00 +23°C° 0.3 mm 2 mps 751 mmHg 87%
    21:00 +21°C° 0 mm 2 mps 751 mmHg 89%
    22:00 +20°C° 0 mm 2 mps 752 mmHg 91%
    23:00 +19°C° 0 mm 2 mps 752 mmHg 93%

    9 June, Tuesday

    Time Temperature Precipitation Wind Pressure Humidity
    00:00 +19°C° 0 mm 2 mps 752 mmHg 94%
    01:00 +18°C° 0 mm 2 mps 752 mmHg 95%
    02:00 +18°C° 0 mm 2 mps 752 mmHg 96%
    03:00 +18°C° 0 mm 2 mps 752 mmHg 96%
    04:00 +18°C° 0 mm 2 mps 752 mmHg 96%
    05:00 +18°C° 0 mm 2 mps 752 mmHg 95%
    06:00 +20°C° 0 mm 2 mps 752 mmHg 90%
    07:00 +22°C° 0 mm 3 mps 752 mmHg 84%
    08:00 +24°C° 0 mm 3 mps 752 mmHg 78%
    09:00 +26°C° 0.2 mm 3 mps 752 mmHg 70%
    10:00 +27°C° 0.2 mm 4 mps 752 mmHg 63%
    11:00 +29°C° 0.2 mm 4 mps 752 mmHg 55%
    12:00 +28°C° 0.6 mm 4 mps 752 mmHg 58%
    13:00 +28°C° 0.6 mm 4 mps 752 mmHg 62%
    14:00 +28°C° 0.6 mm 4 mps 752 mmHg 65%
    15:00 +27°C° 0.8 mm 3 mps 752 mmHg 69%
    16:00 +27°C° 0.8 mm 3 mps 752 mmHg 73%
    17:00 +26°C° 0.8 mm 3 mps 752 mmHg 76%
    18:00 +25°C° 0.3 mm 3 mps 752 mmHg 79%
    19:00 +24°C° 0.3 mm 3 mps 752 mmHg 82%
    20:00 +22°C° 0.3 mm 3 mps 752 mmHg 85%
    21:00 +21°C° 0 mm 3 mps 752 mmHg 87%
    22:00 +21°C° 0 mm 2 mps 752 mmHg 88%
    23:00 +20°C° 0 mm 2 mps 752 mmHg 89%

    10 June, Wednesday

    Time Temperature Precipitation Wind Pressure Humidity
    00:00 +20°C° 0.1 mm 2 mps 752 mmHg 91%
    01:00 +20°C° 0.1 mm 2 mps 752 mmHg 93%
    02:00 +19°C° 0.1 mm 2 mps 752 mmHg 95%
    03:00 +19°C° 0 mm 2 mps 752 mmHg 95%
    04:00 +19°C° 0 mm 2 mps 752 mmHg 95%
    05:00 +20°C° 0 mm 2 mps 752 mmHg 94%
    06:00 +21°C° 0.2 mm 2 mps 753 mmHg 90%
    07:00 +23°C° 0.2 mm 2 mps 753 mmHg 86%
    08:00 +24°C° 0.2 mm 3 mps 753 mmHg 83%
    09:00 +26°C° 0.4 mm 3 mps 753 mmHg 76%
    10:00 +28°C° 0.4 mm 3 mps 753 mmHg 70%
    11:00 +29°C° 0.4 mm 4 mps 753 mmHg 63%
    12:00 +29°C° 1.2 mm 3 mps 753 mmHg 67%
    13:00 +29°C° 1.2 mm 3 mps 753 mmHg 72%
    14:00 +28°C° 1.2 mm 2 mps 753 mmHg 76%
    15:00 +28°C° 0.6 mm 2 mps 752 mmHg 76%
    16:00 +28°C° 0.6 mm 2 mps 752 mmHg 76%
    17:00 +28°C° 0.6 mm 2 mps 752 mmHg 77%
    18:00 +27°C° 0.2 mm 2 mps 752 mmHg 80%
    19:00 +26°C° 0.2 mm 2 mps 752 mmHg 83%
    20:00 +24°C° 0.2 mm 1 mps 753 mmHg 86%
    21:00 +23°C° 0 mm 2 mps 753 mmHg 89%
    22:00 +21°C° 0 mm 2 mps 753 mmHg 91%
    23:00 +21°C° 0 mm 2 mps 753 mmHg 94%
    Show more